Theta_e
322 324 324 325 324 323 321 321 322 324 325 326 329 329 326 326 325 324 325 323 315 314 321 319 315 316 315 316 315 313 310 309 310 309 308 308 307 307 306 306 306 306 304 301 302 302 303 308 310 309 310 311 310 311 311 312 312 313 312 312 313 312 312 313 314 314 313 313 313 312 312 313 311 313 314 313 313 314 314 314 313 313 314 314 313 313
320 323 325 326 322 320 320 320 318 321 321 320 322 323 324 325 324 321 319 319 315 315 323 320 316 316 314 314 313 313 313 313 312 311 310 309 307 307 307 306 306 306 304 301 301 301 302 306 308 308 309 309 309 309 310 311 311 310 310 312 313 312 310 310 312 312 311 313 314 313 312 311 308 309 311 311 310 310 310 310 310 310 309 309 309 309
321 323 323 321 319 318 319 317 316 318 318 319 321 320 323 324 322 322 319 317 314 315 324 323 318 317 315 314 313 313 313 312 311 311 311 311 309 308 307 306 306 307 306 303 301 300 301 304 306 307 308 308 309 309 309 310 310 309 308 309 311 311 308 307 307 308 309 310 312 313 312 311 309 308 307 307 306 306 306 306 305 305 305 305 305 305
324 327 323 317 318 320 318 318 317 317 318 320 321 319 323 324 322 324 323 318 316 316 321 322 318 316 315 315 315 314 313 312 311 311 310 310 310 309 308 307 306 307 306 304 302 300 300 303 305 306 307 308 308 308 308 309 308 307 306 307 308 308 307 306 306 306 307 308 309 311 310 310 310 306 303 303 301 301 301 301 300 300 301 301 300 300
323 324 318 316 319 319 320 321 320 320 322 323 322 320 322 323 322 324 324 322 323 322 319 320 322 323 323 321 319 318 317 315 313 313 312 311 310 310 309 308 307 306 305 304 303 301 299 302 303 305 307 307 307 307 307 308 307 307 306 306 307 306 306 307 306 306 307 308 308 307 304 304 303 300 297 297 295 295 296 295 295 295 295 295 295 294
321 319 318 320 319 318 320 322 323 324 324 326 325 321 320 322 322 322 321 321 326 330 322 319 326 334 337 332 326 326 326 323 317 315 315 312 310 310 310 309 308 307 305 303 303 301 299 301 303 305 306 306 307 306 307 309 308 307 307 306 305 305 306 307 307 307 308 309 310 309 304 299 296 293 292 293 293 292 292 292 292 292 292 293 293 293
320 317 321 328 322 320 322 322 324 323 320 325 327 323 320 319 320 321 321 322 328 332 321 317 326 332 330 327 329 332 332 329 324 319 317 314 312 311 309 309 308 307 305 303 302 301 300 301 303 304 305 306 306 306 307 308 306 307 308 307 304 304 307 308 307 308 308 309 311 312 309 303 298 294 291 292 292 291 291 292 292 292 292 292 293 293
320 318 320 325 325 324 322 322 324 319 322 329 325 323 322 319 320 321 321 323 327 327 322 322 325 325 324 323 325 327 326 326 323 320 319 316 314 312 309 308 308 306 305 303 302 301 300 301 303 304 305 305 306 306 306 306 305 305 308 309 306 303 306 308 307 307 307 308 310 310 307 303 299 296 292 290 291 291 291 291 291 291 292 292 292 292
319 322 321 321 324 324 324 329 326 318 323 328 320 320 322 321 324 325 324 325 324 323 328 329 323 322 328 330 327 322 323 327 325 322 321 319 318 315 311 308 307 306 304 303 303 301 300 300 302 305 305 305 306 306 305 305 305 305 306 307 306 303 304 306 306 306 306 307 309 309 305 299 295 294 291 289 290 291 291 291 291 291 291 291 291 291
318 320 319 319 322 322 326 330 323 319 322 320 316 320 323 323 327 328 329 329 326 324 327 329 324 324 328 331 329 323 325 329 325 322 321 321 323 318 312 308 306 305 304 303 302 300 300 300 302 304 304 304 305 305 305 305 305 305 304 303 304 303 303 304 304 305 305 305 307 307 304 299 293 291 290 290 290 290 290 291 290 291 291 290 290 290
317 314 314 319 321 321 325 322 316 319 320 316 322 329 329 329 330 331 330 327 328 328 325 327 327 325 326 332 331 325 329 332 327 325 326 328 328 321 313 308 306 305 303 303 301 300 300 300 301 302 303 303 304 305 304 304 304 305 304 302 302 303 303 304 304 303 303 302 303 304 303 300 294 290 290 290 289 289 290 290 290 290 290 289 289 289
318 316 317 320 319 320 324 321 316 317 316 320 333 334 331 333 330 329 330 327 329 329 325 326 324 321 326 331 330 325 326 327 325 325 329 333 334 328 315 307 306 305 302 302 302 301 299 299 299 300 301 302 303 304 303 303 303 304 304 302 301 302 303 304 303 301 301 300 300 301 302 300 295 291 290 290 290 290 290 290 289 289 289 289 289 289
320 322 323 319 316 319 325 325 320 317 316 323 332 329 327 331 329 329 330 328 329 326 320 319 320 322 324 325 326 325 324 324 320 319 322 326 331 332 320 307 305 304 302 302 301 301 299 298 298 298 300 301 301 302 302 301 301 302 303 302 300 301 302 302 300 298 298 298 298 299 299 297 293 291 290 290 290 290 290 290 289 289 289 288 288 288
323 323 322 318 317 320 323 323 322 321 320 322 326 327 328 329 331 335 332 327 327 324 317 314 320 324 324 324 324 322 321 323 321 318 318 318 321 326 321 310 305 304 302 301 301 301 300 298 298 298 299 300 300 301 301 300 300 300 301 300 300 301 301 300 298 296 296 297 297 297 296 294 292 291 290 290 290 290 290 290 290 289 289 289 289 288
323 322 321 319 320 321 319 320 325 326 321 320 323 325 327 330 334 336 334 330 330 328 321 315 321 329 331 331 326 321 321 324 323 320 318 316 314 314 313 309 305 303 301 301 300 300 299 298 298 298 299 299 300 301 300 299 299 299 299 299 300 300 299 297 296 295 295 295 295 294 293 292 291 291 291 290 290 290 291 290 290 290 290 289 289 288
320 324 325 320 319 320 318 320 325 324 321 320 322 324 325 328 328 326 326 326 325 327 325 320 324 330 329 326 322 320 323 324 321 319 319 319 313 310 311 310 305 302 301 300 300 300 299 297 298 298 299 299 299 300 299 299 298 298 299 299 299 299 298 296 295 294 293 293 293 292 291 291 291 291 291 290 290 290 291 291 290 290 289 289 288 288
322 326 322 315 317 318 318 321 322 322 323 321 320 323 323 321 322 323 323 319 319 323 326 324 326 328 325 324 322 319 322 324 321 321 323 319 314 313 314 310 305 302 301 300 300 300 298 297 297 298 298 299 299 299 299 299 299 299 299 298 297 298 297 295 294 294 293 293 292 291 290 290 290 291 291 290 290 290 290 290 290 290 289 288 288 288
324 326 320 316 319 316 314 320 321 318 320 322 324 324 319 318 324 328 327 325 326 328 327 324 326 327 326 327 324 319 320 322 321 322 321 317 317 317 313 307 304 302 300 300 300 299 297 296 297 297 298 298 299 299 299 299 299 299 299 298 297 296 296 294 294 294 293 292 292 290 290 290 290 291 291 291 291 290 290 290 290 289 289 288 288 288
322 323 322 317 319 316 313 319 323 316 315 321 326 323 322 327 328 326 327 330 330 329 329 326 324 323 323 325 324 321 323 326 323 320 319 319 320 317 311 307 305 302 301 300 300 299 297 296 296 297 297 298 298 298 298 298 298 298 298 298 297 297 296 295 293 293 292 292 291 290 290 289 290 290 290 290 290 290 290 290 290 289 288 288 288 287
322 321 324 316 314 316 316 319 324 320 315 317 319 318 320 326 327 325 326 327 328 329 330 329 325 323 323 324 325 323 323 327 327 325 325 326 322 315 310 307 304 302 301 300 299 298 297 295 296 296 297 297 297 298 298 297 297 296 296 295 295 295 296 295 293 292 291 291 290 290 289 289 289 290 290 290 290 290 290 290 290 289 288 288 288 287
322 319 324 318 312 317 321 321 322 321 318 318 320 320 319 320 322 324 324 323 327 330 330 330 327 325 326 323 324 325 323 324 327 329 330 329 321 315 311 308 304 302 301 300 298 298 296 295 295 296 297 297 297 297 297 296 296 295 295 294 294 294 294 294 293 292 291 290 290 289 289 289 289 290 290 290 290 290 290 290 290 289 288 288 288 287
321 322 326 323 318 321 323 320 317 318 319 319 320 321 320 319 321 324 323 322 324 326 328 329 327 326 329 325 321 326 328 325 323 323 326 323 317 318 316 308 305 302 301 300 298 298 296 294 294 295 295 296 296 296 295 295 295 294 294 293 293 294 294 294 293 292 291 291 290 290 289 289 290 289 289 289 290 290 290 290 290 289 288 288 287 287
323 327 327 325 321 321 320 315 313 316 318 317 319 322 321 319 321 325 326 324 323 323 324 325 325 325 326 323 322 326 328 324 319 318 322 320 315 318 317 308 303 302 301 299 298 297 295 294 294 294 294 295 295 295 295 294 294 294 293 293 293 293 294 294 294 293 293 291 291 290 289 289 289 289 289 289 289 290 290 290 289 289 288 288 287 287
322 325 324 324 324 322 320 316 314 314 315 316 319 322 322 319 320 324 326 325 325 326 324 324 325 324 321 320 320 322 321 320 319 317 321 324 320 317 314 309 304 302 301 300 299 297 294 293 293 293 293 294 294 294 294 293 293 294 293 293 293 294 294 294 294 293 293 292 291 290 289 289 289 289 289 289 289 290 290 290 289 288 288 287 287 287
320 324 325 325 327 326 324 322 318 314 315 319 322 321 320 320 320 321 323 323 325 326 324 325 326 323 321 320 318 318 318 319 320 318 319 326 326 319 313 308 304 302 301 300 299 297 295 293 292 292 293 293 293 294 293 293 293 293 293 293 293 293 294 293 293 293 292 292 291 290 289 289 289 288 288 289 289 289 289 289 288 288 287 287 287 286
320 324 323 323 325 326 325 325 324 319 316 319 322 320 318 319 320 320 321 322 324 324 323 325 325 322 321 321 318 317 319 320 322 322 320 322 322 316 312 309 305 302 301 300 298 297 296 294 292 292 292 293 293 293 293 293 292 292 292 293 293 293 293 293 293 292 292 291 291 290 289 289 289 288 288 288 289 289 289 289 288 287 287 287 286 286
324 325 321 321 324 323 323 325 325 321 319 319 321 320 318 318 318 319 321 323 324 324 323 323 323 323 323 322 320 320 323 325 326 327 326 325 322 316 312 310 305 302 301 299 298 297 296 295 293 292 292 292 293 293 293 293 292 292 292 292 292 292 292 292 292 291 291 291 290 290 289 289 289 288 288 288 288 289 289 288 288 287 287 286 286 286
327 325 321 322 323 321 323 325 323 321 321 321 320 320 319 318 318 319 321 322 324 325 325 322 322 324 322 321 322 323 324 328 330 331 331 330 327 320 313 309 306 303 301 299 298 297 296 295 294 292 292 292 292 292 293 293 292 292 291 291 291 291 291 291 291 291 291 290 290 289 289 289 288 288 288 288 288 288 288 287 287 287 286 286 286 286
326 324 322 323 323 321 322 323 322 322 322 320 320 320 319 318 318 319 320 320 322 324 324 323 324 325 322 320 321 321 322 323 324 326 325 322 323 320 313 311 310 305 302 300 299 297 296 296 295 293 291 291 292 292 292 292 292 292 291 291 291 291 291 291 291 290 290 289 289 289 289 289 288 288 288 287 287 288 287 287 287 286 286 286 285 285
323 323 323 324 323 322 322 322 322 323 322 320 320 319 319 318 318 318 319 319 320 321 322 322 324 324 321 319 321 323 323 320 318 320 320 319 323 323 317 315 313 307 304 301 299 297 296 296 295 292 291 291 291 291 291 291 291 291 291 291 290 290 290 291 290 290 289 289 289 289 288 288 288 288 288 287 287 287 287 286 286 286 286 286 285 285
319 322 325 324 323 323 322 322 323 323 322 321 321 319 319 318 318 318 318 318 319 320 320 320 323 322 320 320 323 325 323 318 316 319 319 318 321 322 319 316 313 309 305 301 299 298 297 296 295 292 291 291 291 291 291 291 291 291 291 290 290 290 290 290 290 289 289 289 289 289 288 288 288 288 288 287 287 287 286 286 286 286 286 285 285 285
317 322 324 322 323 324 322 323 323 321 320 320 321 321 319 318 318 317 318 318 319 319 320 321 321 320 320 321 322 323 322 320 320 321 318 317 317 318 318 318 315 311 307 303 300 299 298 297 296 294 292 291 291 291 291 291 291 290 291 291 290 290 289 289 289 289 289 289 288 288 288 288 288 287 287 287 287 286 286 286 286 286 286 285 285 284
317 320 322 322 324 323 323 324 322 320 321 322 322 321 320 319 319 317 317 318 317 318 320 321 320 319 319 320 320 321 323 323 321 320 318 317 316 315 315 316 314 311 307 304 301 299 298 297 295 293 292 292 292 291 291 291 291 290 291 290 290 289 289 289 289 289 289 289 288 288 288 288 287 287 287 287 287 286 286 285 286 286 286 285 285 284
317 319 320 321 323 324 323 322 321 321 324 324 323 322 320 319 318 318 318 317 316 317 318 318 319 318 319 320 319 320 321 320 318 317 317 317 316 315 313 312 311 310 307 305 302 300 298 296 294 294 293 292 292 292 291 291 291 291 290 290 289 289 289 288 289 289 288 288 288 288 288 287 287 287 287 287 286 286 285 285 285 286 286 285 285 284
316 317 320 320 321 323 321 320 322 324 324 324 325 324 321 319 317 317 317 316 315 316 316 317 318 317 318 319 318 318 318 317 317 317 316 316 314 314 315 313 310 308 307 305 303 301 299 296 294 294 294 293 293 292 291 291 291 290 290 290 289 289 289 289 288 288 288 288 288 288 287 287 287 287 286 286 286 285 285 285 285 285 285 285 285 285
316 316 318 318 320 320 320 321 325 324 321 322 324 318 316 319 319 317 318 318 315 315 316 316 316 316 317 317 317 318 317 314 314 314 314 315 314 313 314 313 309 307 306 305 302 301 298 296 295 295 295 294 294 293 292 291 291 290 290 290 289 289 288 289 288 288 288 288 288 287 287 287 287 286 286 286 285 285 284 284 284 285 285 285 285 285
317 316 316 317 319 320 321 322 323 323 322 323 323 317 314 319 321 319 320 320 316 315 315 315 315 316 316 316 316 316 312 311 312 313 314 317 314 309 309 310 307 305 304 301 299 299 298 297 297 296 295 295 294 293 293 292 291 290 290 289 289 288 288 288 288 288 288 288 288 287 287 287 286 286 286 285 285 284 284 284 284 284 284 284 284 284
317 317 316 318 319 319 321 322 322 324 323 322 323 319 315 318 320 318 320 322 319 317 316 315 316 316 315 316 316 314 311 312 314 314 315 316 310 306 307 308 304 301 300 299 298 298 298 297 297 296 296 295 295 294 293 292 291 290 289 289 289 288 288 288 288 288 288 288 288 287 287 287 286 286 286 285 285 285 284 284 284 284 284 284 284 285
316 316 315 317 319 319 321 323 323 324 324 323 324 318 314 317 319 317 320 321 320 321 319 316 316 316 316 315 314 313 312 314 315 315 316 314 308 307 309 308 302 298 297 299 299 299 298 298 297 297 296 295 295 294 293 292 291 290 289 289 289 288 288 288 288 288 288 288 288 287 287 287 286 286 286 285 285 285 284 284 284 284 284 284 285 285
313 315 315 317 320 319 320 322 323 322 323 324 320 312 310 315 317 319 322 322 322 323 321 318 317 316 315 315 313 312 314 315 316 317 313 309 305 303 302 303 301 297 295 297 299 299 299 298 297 297 296 295 295 294 293 293 292 290 290 289 288 288 288 288 288 288 288 288 288 287 287 287 286 286 286 286 285 285 284 284 284 284 283 284 284 284
312 314 315 316 319 319 320 322 321 321 323 323 315 308 309 313 316 321 323 320 321 321 315 315 317 315 314 315 312 311 313 311 310 308 304 302 303 299 294 292 292 292 292 295 297 298 298 297 297 297 296 296 296 294 294 293 292 290 290 289 288 289 289 289 289 288 288 288 287 287 287 287 287 286 286 286 285 285 284 284 284 284 283 283 283 282
314 315 315 316 318 318 320 321 320 322 322 316 309 306 309 315 320 321 315 310 313 316 311 310 314 314 313 312 311 310 308 304 301 300 300 300 302 300 295 291 291 292 292 293 294 296 296 295 295 296 295 295 295 295 294 293 292 291 290 289 289 290 290 289 289 288 288 288 287 287 287 287 287 287 286 286 285 285 284 284 284 284 283 283 282 281
315 316 316 316 317 318 319 320 321 322 316 309 306 306 309 317 323 319 309 304 306 312 313 311 311 311 310 309 307 306 303 299 298 298 299 298 298 297 296 295 295 294 292 292 293 295 296 295 294 295 295 295 295 295 294 293 292 290 290 290 290 291 290 289 289 288 288 288 287 287 287 287 287 286 286 286 285 285 285 284 284 283 283 283 282 282
315 316 316 317 316 318 319 319 320 319 311 307 311 312 311 315 318 313 309 308 306 307 311 314 311 307 306 306 302 299 299 299 298 297 297 297 296 295 295 294 292 290 290 291 293 294 296 295 293 293 294 294 294 294 294 293 292 290 289 290 291 290 289 288 288 288 288 288 287 287 287 287 287 287 286 286 285 285 284 284 284 283 283 282 282 281
316 314 316 318 316 316 318 316 314 312 307 305 311 314 312 313 311 307 307 310 308 305 308 314 312 305 301 300 297 296 297 298 296 296 296 296 295 295 295 293 290 289 289 290 291 293 294 293 291 291 291 292 293 293 293 293 293 291 290 291 290 290 289 289 288 288 288 287 287 287 287 287 287 286 286 286 285 285 285 284 283 283 282 282 281 281
312 310 312 316 315 314 316 313 308 307 306 305 307 307 307 309 309 306 307 310 309 306 306 310 310 303 298 296 297 297 297 296 295 294 294 294 294 293 292 290 288 287 288 289 290 291 292 292 291 290 290 290 291 292 292 292 293 293 292 292 291 290 290 289 289 288 288 288 288 287 287 287 286 286 286 285 285 285 285 284 284 283 282 282 281 281
309 307 309 313 315 316 317 314 310 308 307 306 304 301 300 303 304 304 306 308 308 306 304 304 303 299 296 297 299 299 296 294 296 295 293 293 293 292 293 292 288 286 288 289 290 291 292 292 291 291 291 291 291 291 292 292 292 292 292 292 291 291 290 289 289 289 288 288 287 287 287 287 286 286 285 285 285 284 284 284 284 283 282 282 281 280
310 308 309 313 314 314 313 309 305 303 302 302 303 302 301 301 300 299 299 298 299 300 299 298 298 297 296 298 298 297 295 294 295 296 293 292 292 292 293 291 286 285 288 289 290 292 293 293 293 293 293 292 292 292 292 292 292 292 292 291 291 291 290 290 289 289 288 288 287 287 287 286 286 286 285 285 285 284 284 284 283 283 283 283 282 282
308 308 310 312 311 310 310 304 300 302 303 302 301 302 302 300 298 297 294 292 296 299 298 296 296 296 297 297 295 296 297 294 293 294 294 292 293 294 292 287 285 286 288 289 290 292 293 293 293 293 293 292 292 292 292 292 292 291 291 291 291 291 290 290 289 289 288 288 288 287 287 286 286 286 285 285 285 285 284 284 283 283 283 283 283 282
307 309 310 310 309 310 310 306 303 306 310 306 302 301 301 297 295 296 296 295 298 300 299 297 296 294 294 294 293 297 300 295 291 292 294 293 294 293 288 284 285 287 287 288 290 291 291 292 293 293 292 292 292 292 292 291 291 291 291 291 290 290 290 290 289 288 288 288 288 287 287 286 286 285 285 285 285 284 283 283 282 282 282 282 281 281
308 309 308 309 310 311 309 305 304 308 313 309 304 303 300 295 294 297 298 298 298 297 297 299 299 296 295 292 290 294 298 295 291 291 293 292 290 288 286 285 286 286 287 288 290 289 290 291 291 291 292 291 291 291 291 291 290 290 290 290 289 289 289 289 289 289 288 288 288 287 287 286 286 285 285 284 284 283 283 282 282 282 281 281 281 280
Wind_Speed
3 3 2 5 7 8 9 10 7 5 6 5 4 3 4 4 5 5 4 6 2 4 6 8 9 11 11 12 11 5 6 8 10 10 10 10 9 10 11 11 11 11 8 10 17 19 19 20 21 19 19 19 19 19 20 20 21 22 23 23 23 23 24 25 26 26 27 26 25 25 25 25 24 23 22 22 22 22 22 22 22 21 21 21 22 22
4 4 7 10 10 8 8 8 5 5 5 3 3 2 3 4 6 7 4 5 1 3 6 5 6 11 11 12 11 3 6 10 13 13 14 14 12 11 12 13 11 7 5 9 15 18 20 21 21 20 19 20 20 21 21 22 23 23 23 24 24 24 25 25 25 26 26 26 26 26 26 26 26 25 24 25 25 24 24 24 23 23 23 23 23 23
2 4 12 10 5 6 4 5 5 4 2 1 2 1 3 3 4 6 4 4 0 4 5 4 4 10 12 11 11 8 9 11 13 15 16 14 13 13 12 12 11 8 7 9 12 16 20 22 22 21 20 21 21 22 23 23 23 23 23 24 25 26 26 25 25 26 26 26 26 26 27 27 26 26 26 27 26 25 25 25 25 24 24 24 24 24
3 6 11 6 7 7 3 4 6 3 1 3 3 2 3 3 2 4 4 3 1 2 2 4 4 8 11 9 10 12 11 10 11 13 13 12 13 14 13 12 12 12 11 10 10 13 18 21 22 23 22 22 22 23 24 24 24 24 24 25 26 27 26 26 26 26 27 28 28 28 28 27 27 27 27 28 27 27 27 27 26 26 26 26 26 26
6 6 3 6 8 8 5 4 7 5 3 5 6 6 5 4 6 6 4 4 3 3 2 3 6 7 8 8 9 8 5 8 11 10 12 13 12 11 9 10 12 13 13 13 12 12 16 21 22 24 24 22 23 25 26 26 26 26 26 26 27 28 28 28 28 28 29 30 30 30 29 27 28 28 28 29 29 28 29 29 29 29 28 28 28 27
8 5 4 7 5 7 7 4 6 7 4 5 5 10 10 8 8 6 3 5 4 5 3 3 4 6 5 6 8 5 4 7 9 8 13 15 11 9 9 10 10 10 11 12 13 14 17 20 22 23 25 24 25 26 27 28 28 28 28 28 28 28 29 29 29 29 30 31 30 29 30 29 30 29 28 30 31 30 32 32 31 30 29 28 26 25
5 4 5 7 6 7 6 4 6 8 5 4 5 9 11 9 6 5 2 2 1 5 3 2 2 6 7 7 7 5 6 10 9 9 13 12 8 9 11 9 9 9 9 10 11 13 16 20 22 24 26 27 27 27 28 29 29 28 29 30 29 29 30 31 30 30 30 30 29 29 30 31 33 31 28 30 33 33 33 33 32 31 29 27 25 24
4 5 4 6 6 6 6 4 6 8 7 4 5 6 8 8 7 6 5 4 3 3 4 1 2 5 8 7 5 3 7 11 12 13 13 11 9 10 10 9 10 11 11 11 12 13 16 21 25 26 28 28 27 28 29 30 30 29 30 31 30 29 31 31 29 30 30 30 29 30 32 33 33 33 31 32 34 34 34 34 32 31 29 26 24 24
4 7 8 8 5 5 6 5 8 10 6 5 3 6 6 6 6 4 5 3 1 2 5 4 1 3 7 5 4 3 4 10 13 15 15 12 9 10 10 10 10 10 11 12 12 14 17 23 27 29 29 27 27 29 30 31 31 30 31 31 31 30 30 30 30 31 31 30 30 31 34 33 32 34 35 34 35 35 34 34 32 30 29 27 25 25
2 6 8 8 6 6 5 2 8 12 5 3 5 7 6 5 5 4 4 3 2 1 7 6 3 3 7 4 1 2 2 9 12 12 11 8 7 8 10 9 9 8 8 10 11 14 19 24 26 27 27 26 28 30 31 31 31 31 31 31 31 31 30 31 33 33 31 30 31 32 35 35 35 37 37 35 35 35 34 34 33 31 29 28 27 26
1 1 2 4 4 5 4 2 3 7 6 6 6 6 7 6 5 3 2 4 1 4 8 8 9 7 6 3 4 4 5 7 8 8 8 6 6 7 7 7 8 7 7 8 8 11 17 20 22 24 25 26 28 29 30 31 32 32 31 31 31 31 32 33 34 33 31 31 32 34 36 37 39 40 40 38 37 36 35 35 34 32 30 29 27 26
3 1 2 2 2 4 7 5 3 2 4 5 4 5 3 4 4 4 4 4 1 6 5 5 6 8 8 6 4 6 7 7 8 8 8 7 7 6 6 6 7 7 7 8 8 9 12 15 19 23 25 26 28 30 31 31 32 33 33 32 32 31 32 34 34 32 32 33 34 35 36 38 42 43 42 42 40 39 38 37 35 33 32 30 28 27
2 4 3 2 1 4 6 4 4 4 2 4 4 6 4 2 3 3 3 0 4 7 3 1 1 4 9 8 7 9 11 11 10 8 8 8 8 6 5 6 6 7 8 9 8 9 10 13 18 23 25 27 29 31 32 32 32 33 34 34 33 33 33 34 34 33 33 34 35 36 38 40 43 44 42 42 41 40 39 38 37 36 34 32 30 28
3 5 2 1 2 3 8 7 3 1 4 5 6 6 5 2 0 3 4 2 4 6 3 1 1 3 5 6 10 15 16 13 9 7 8 8 8 7 6 6 7 8 9 9 9 10 10 14 20 24 27 28 29 31 32 32 33 33 34 34 34 34 34 35 35 34 34 35 35 37 39 42 44 43 41 41 41 40 39 38 37 36 34 33 31 29
6 6 5 7 3 6 10 9 6 6 6 5 4 5 5 6 4 4 4 4 5 4 4 2 2 4 3 3 8 11 10 9 8 7 6 7 8 6 4 6 7 8 9 8 10 11 12 17 22 25 27 29 30 32 32 32 33 33 35 35 35 35 36 36 36 35 35 36 36 38 40 43 44 43 41 40 40 40 39 37 36 34 32 31 30 29
5 7 6 3 1 9 11 5 5 8 3 3 2 4 4 6 5 3 3 4 2 3 4 2 4 5 4 6 8 7 7 8 8 7 6 8 6 3 5 6 7 8 8 9 10 10 12 18 23 25 27 29 29 31 32 33 34 34 35 36 36 37 37 37 37 36 36 36 37 39 41 43 43 42 41 40 39 39 37 36 34 33 31 31 30 29
3 5 4 2 2 5 7 4 4 3 3 2 3 4 4 4 6 2 3 1 3 3 5 3 5 5 3 8 9 7 9 10 8 7 9 8 4 3 7 7 7 8 9 9 10 10 12 17 22 24 27 28 29 31 32 34 36 36 37 37 37 37 38 38 37 37 36 37 38 40 41 42 42 42 41 41 40 38 36 34 33 32 32 31 30 29
5 3 4 2 1 3 1 4 4 3 3 6 4 6 3 2 2 2 2 3 3 4 5 2 6 5 2 6 5 1 8 12 11 11 10 7 5 7 8 6 7 8 8 9 9 9 11 16 21 24 26 29 30 32 34 35 36 36 37 38 38 38 39 39 38 38 38 38 40 41 42 42 42 42 41 41 40 38 37 35 34 33 32 31 30 29
4 2 4 1 3 3 3 4 2 5 2 5 4 5 4 2 1 2 2 2 1 4 5 3 4 4 6 6 2 3 10 11 12 11 9 9 10 10 8 7 8 7 7 8 8 8 10 15 20 23 25 28 30 31 33 34 35 35 36 37 38 39 39 39 38 38 39 39 41 42 42 41 41 41 41 40 40 39 37 36 35 34 33 32 31 29
3 3 4 1 1 1 2 2 4 1 2 3 2 3 2 2 4 3 3 3 3 3 4 3 3 4 7 7 7 10 11 10 10 9 8 12 13 9 6 6 7 8 8 8 9 9 9 14 20 24 26 29 30 31 32 32 34 35 35 36 37 38 39 39 38 38 39 39 41 42 41 41 41 41 41 40 40 39 38 36 35 34 34 33 32 30
2 4 4 2 3 1 2 4 8 10 6 3 4 5 3 1 2 1 1 2 4 2 2 3 7 6 4 5 9 11 10 10 10 9 9 12 9 4 5 7 7 8 9 8 9 8 9 14 20 23 26 28 29 30 31 32 33 34 35 36 36 37 39 40 39 39 39 40 41 41 42 41 41 41 41 41 41 40 38 37 36 35 34 34 32 31
3 4 4 2 1 4 5 4 5 9 8 7 7 8 9 6 4 3 3 2 3 2 4 3 8 10 4 4 7 8 8 9 9 9 9 10 8 5 6 8 9 9 9 8 8 8 9 14 19 22 25 26 28 29 30 32 33 34 35 36 36 38 40 41 41 40 40 41 42 42 42 42 42 42 42 42 42 41 39 38 37 36 36 34 33 32
4 3 3 3 4 6 5 4 1 3 2 3 4 5 7 6 6 6 5 4 3 2 3 4 5 10 3 4 6 6 5 5 5 6 7 8 8 6 6 7 8 8 7 7 8 8 10 15 19 22 24 26 28 29 30 32 33 34 35 36 37 39 40 41 42 41 41 42 42 43 42 43 43 43 42 43 43 42 40 39 38 38 36 35 34 32
3 3 4 2 2 3 4 4 2 2 2 1 1 2 6 7 8 6 5 4 4 5 4 4 6 9 2 2 4 3 4 4 4 5 6 6 7 6 6 6 6 7 7 7 7 7 9 14 17 19 22 25 27 29 30 32 33 34 36 37 38 40 41 41 41 41 41 42 42 42 43 43 43 43 43 44 44 43 42 40 39 39 37 36 34 33
4 4 5 2 1 3 4 3 2 2 3 3 3 4 8 12 9 3 1 2 3 8 9 6 9 9 2 4 3 2 4 5 6 6 5 6 7 6 5 5 6 6 6 7 7 7 9 12 14 18 21 24 26 28 30 32 33 35 36 38 39 39 39 40 40 41 41 41 41 41 43 44 44 44 45 45 45 44 43 41 41 40 38 37 35 33
6 6 7 7 8 8 8 7 6 5 4 2 5 8 10 12 12 7 3 4 7 8 10 9 12 7 1 4 5 4 4 5 7 6 4 6 8 6 4 5 6 6 7 8 9 9 10 10 12 17 22 24 26 28 29 31 32 33 34 36 38 37 38 39 40 40 40 40 40 41 43 44 44 44 45 45 45 44 43 42 41 40 39 37 35 34
3 4 10 12 13 15 13 7 4 9 8 7 11 13 13 13 14 11 6 8 9 4 5 13 17 11 7 5 6 6 6 6 7 5 5 7 7 6 5 5 5 6 7 8 8 9 9 10 12 17 21 24 26 28 29 30 30 31 32 34 35 35 37 38 39 39 39 40 40 41 42 43 43 43 44 44 44 44 43 42 41 40 39 37 35 34
3 4 12 16 18 20 17 8 9 13 13 15 15 15 16 15 14 12 13 15 8 4 9 18 13 14 17 11 9 9 7 5 7 8 8 7 6 5 5 5 5 6 6 7 9 10 12 12 11 14 20 23 24 26 27 28 30 31 31 32 33 34 36 37 38 38 39 39 39 40 41 41 42 42 42 42 43 43 42 42 41 40 38 37 36 34
3 5 10 14 18 21 18 9 11 12 11 14 16 17 18 17 17 18 21 22 12 8 18 18 10 13 22 16 12 11 8 9 11 9 6 4 4 5 5 6 7 7 8 10 12 12 12 12 10 13 18 21 23 25 26 28 30 32 32 33 33 34 35 37 38 38 38 38 39 40 40 40 41 41 41 41 41 41 41 41 40 39 38 37 36 34
3 6 9 13 15 19 19 12 10 11 9 9 13 16 17 18 21 23 25 24 18 15 22 19 11 17 21 13 10 9 9 10 7 2 3 5 6 7 7 8 8 9 10 12 13 12 12 11 11 13 17 21 24 27 28 29 31 33 33 33 33 34 36 37 38 38 38 39 40 39 38 39 40 40 40 40 40 40 40 40 39 39 38 37 35 34
5 6 6 7 8 14 19 15 10 11 11 11 10 11 14 18 22 24 23 20 16 17 23 21 17 19 14 6 6 7 7 6 4 4 8 9 8 7 8 8 9 9 11 12 12 11 10 10 10 12 17 22 26 28 29 30 31 32 33 34 36 37 37 37 37 37 38 38 37 36 36 37 38 38 39 39 39 39 39 39 39 39 39 37 35 34
6 4 2 4 6 12 18 17 12 8 7 10 12 13 18 20 19 19 18 17 17 18 21 18 15 18 11 4 4 6 7 7 9 10 10 9 8 9 9 10 11 11 13 13 11 11 11 12 12 13 18 23 27 29 30 31 30 32 35 36 37 37 36 36 37 37 37 36 35 34 35 36 37 37 38 38 38 39 39 39 39 39 39 38 36 35
7 6 3 5 8 12 14 11 8 5 3 9 15 22 25 22 16 14 15 18 19 17 16 14 15 20 16 6 4 6 7 10 12 11 10 10 10 10 11 12 11 12 12 11 10 11 11 12 14 18 22 25 28 32 33 33 33 34 36 35 34 34 35 36 37 36 36 35 35 35 36 36 36 37 37 38 38 39 39 39 40 40 40 39 38 36
8 10 7 6 7 10 8 6 7 6 9 11 12 17 22 20 17 18 19 20 19 16 14 14 16 19 16 9 9 10 11 11 11 11 11 10 9 9 11 11 10 11 10 9 9 11 11 12 15 20 24 26 29 31 32 33 33 32 31 30 30 32 33 34 35 34 34 34 36 36 35 35 35 36 36 37 38 38 39 39 40 41 41 40 38 37
8 9 6 3 5 6 4 7 5 9 12 9 3 3 11 16 19 20 18 18 17 16 17 19 20 20 17 13 10 11 11 10 9 10 9 7 7 8 9 11 11 11 9 8 9 10 10 11 14 18 22 25 27 27 28 31 31 29 29 30 31 32 34 34 35 34 34 35 35 35 35 35 35 36 36 37 37 38 39 40 41 41 41 41 40 39
7 6 3 2 3 2 3 7 9 6 3 5 4 1 3 6 11 12 13 16 18 19 20 22 24 23 20 16 12 9 6 5 6 7 7 6 7 8 9 10 10 10 9 9 10 11 13 16 20 22 24 25 26 28 29 31 30 29 29 31 33 33 34 34 34 33 34 35 35 35 35 35 36 36 36 36 37 38 39 40 41 42 42 41 40 40
9 7 4 3 5 4 5 8 6 4 5 7 7 4 5 7 11 13 11 14 19 21 20 20 22 23 19 18 16 8 2 2 7 7 6 7 8 7 7 8 7 8 9 9 11 13 16 20 23 23 22 23 25 28 29 28 29 28 28 29 31 31 32 32 33 34 35 35 35 35 36 36 36 36 36 36 37 39 40 41 42 42 42 41 41 40
10 9 8 6 5 5 7 8 5 4 9 11 8 5 7 10 13 14 10 11 15 17 17 17 19 20 18 18 15 5 5 2 10 9 7 7 7 5 4 4 5 8 9 10 11 11 14 17 18 18 19 21 24 26 26 27 28 28 27 28 30 30 30 31 34 35 35 35 35 36 36 36 36 37 37 38 39 41 41 40 40 41 42 42 42 42
9 8 8 8 5 5 7 8 7 7 9 9 6 5 7 9 10 10 5 10 10 9 13 15 17 20 20 17 10 6 6 6 12 10 6 7 7 6 6 3 2 5 7 10 12 13 14 16 16 16 18 20 22 24 25 26 28 29 28 28 29 29 30 33 35 35 35 35 34 35 35 36 37 37 38 39 40 40 39 39 39 40 40 41 42 42
8 5 6 8 8 7 8 7 5 5 6 6 5 5 5 8 12 11 4 10 7 8 12 16 20 21 17 11 7 7 8 10 10 7 5 8 5 3 4 4 4 5 6 8 10 12 14 15 16 17 18 20 22 23 24 26 28 29 28 27 28 29 32 34 33 32 32 32 32 33 34 36 37 37 38 39 39 38 38 38 38 38 39 40 41 41
5 5 5 8 9 10 11 9 4 4 5 5 6 7 7 8 9 8 8 7 6 7 7 11 16 14 9 8 8 8 8 5 2 2 4 7 6 5 5 6 8 9 10 11 12 13 15 15 15 16 17 18 20 21 24 26 27 26 25 25 26 30 32 31 29 28 29 30 31 33 34 35 36 37 38 38 37 36 36 36 37 37 39 39 39 37
5 5 4 7 9 8 8 7 4 5 5 7 8 6 7 6 5 8 6 1 4 6 3 5 9 7 6 8 8 7 4 1 3 5 6 7 7 6 5 6 9 10 11 13 14 15 17 15 13 14 14 15 18 20 23 25 25 24 23 24 27 30 30 27 27 27 28 29 31 32 33 34 35 36 36 36 35 34 34 35 36 37 37 36 36 35
7 6 4 6 6 4 4 6 6 5 4 12 13 4 4 5 5 5 2 2 1 5 5 4 6 5 6 7 5 5 5 4 4 5 6 6 6 6 5 6 8 8 9 12 12 13 15 15 13 13 13 13 15 18 21 24 24 23 23 25 27 27 25 25 25 25 26 28 29 30 31 32 33 34 34 34 34 34 34 34 35 35 35 35 35 34
6 6 5 6 6 5 6 8 5 2 5 13 14 7 8 8 4 4 5 3 2 4 5 5 5 5 6 8 7 6 6 5 5 5 6 6 6 6 5 6 7 8 9 11 12 13 15 16 14 13 13 14 15 18 21 23 23 22 23 24 22 21 21 21 22 22 24 25 26 27 29 30 31 31 32 33 33 33 33 33 33 34 34 34 34 33
7 6 4 4 5 5 5 5 2 2 6 9 6 4 7 7 4 3 5 5 3 5 5 5 5 5 6 8 9 7 5 5 6 5 6 6 6 6 6 6 7 9 11 13 14 15 17 19 19 17 16 16 16 17 19 20 20 21 21 19 16 16 17 18 19 20 21 22 24 25 26 27 28 29 30 31 32 32 33 33 33 33 33 33 33 34
3 3 3 2 2 3 2 2 2 0 5 8 4 2 3 4 4 4 5 4 4 5 4 5 7 7 7 9 9 7 5 7 7 5 6 7 6 6 6 6 7 10 13 14 14 16 19 21 20 20 18 16 15 16 17 16 15 14 14 13 12 12 13 14 16 18 19 20 21 22 24 25 26 27 28 29 30 31 32 32 33 33 33 33 33 34
2 3 3 2 3 4 4 4 5 3 6 9 6 2 1 3 3 4 4 4 5 6 5 6 7 8 8 8 9 8 7 8 8 7 6 6 7 6 6 6 7 9 12 14 15 17 19 19 18 18 18 16 15 14 14 14 12 9 8 8 9 9 10 12 14 16 17 19 20 21 23 24 25 26 27 28 29 30 30 31 32 32 32 33 34 35
3 5 5 3 5 5 4 4 3 2 5 6 5 3 3 4 4 4 2 3 4 6 5 5 7 8 7 7 8 10 9 7 8 8 7 5 6 6 6 6 8 10 11 13 14 15 16 16 16 16 15 15 14 13 12 12 11 8 7 6 6 8 10 11 13 14 16 17 18 20 21 22 23 24 25 27 28 29 30 31 32 33 34 35 36 36
5 6 5 5 5 3 4 4 2 1 3 5 6 6 5 5 5 5 3 3 6 8 7 6 4 5 7 7 8 10 10 7 7 9 8 6 6 6 6 7 10 11 12 12 12 12 13 14 14 14 13 12 12 12 11 11 10 9 8 7 6 8 9 11 13 14 15 16 17 18 19 20 22 23 24 25 27 28 29 30 31 33 34 35 34 35
6 7 4 5 5 7 8 7 8 4 3 7 11 10 7 5 6 6 5 5 7 8 9 8 6 4 5 5 7 10 10 7 6 8 8 7 7 7 8 9 11 11 11 12 11 10 10 10 11 11 11 10 10 11 10 10 10 10 9 9 8 8 9 11 13 14 14 15 16 17 18 20 21 22 23 24 25 26 27 28 28 30 31 32 31 32
7 8 8 8 7 8 7 10 10 5 4 7 10 11 8 6 7 7 7 7 7 7 9 10 8 6 4 3 4 7 10 8 7 8 8 6 7 10 12 13 13 13 12 13 12 11 10 9 9 9 9 9 8 9 9 9 9 9 9 9 9 8 9 10 11 13 14 15 16 17 18 19 20 21 22 22 23 24 25 26 26 28 29 30 30 30
Wind_Direction
99 118 170 209 215 202 198 200 193 167 138 128 133 147 208 224 268 253 248 284 212 161 244 224 228 250 251 262 262 214 175 216 238 243 242 233 227 225 222 221 216 218 217 191 192 197 195 195 195 192 191 191 190 188 187 185 181 177 173 169 169 168 164 163 162 159 157 152 149 147 146 146 143 147 153 154 155 155 154 153 153 151 150 152 151 149
84 143 220 228 214 195 197 200 170 131 123 98 128 190 263 222 252 258 238 293 272 171 262 244 234 258 252 255 264 204 170 222 227 228 237 231 227 228 223 223 216 209 183 175 192 197 194 196 194 191 190 188 186 185 185 184 181 178 175 174 175 174 167 164 164 162 159 158 159 155 151 148 144 147 152 152 152 152 150 150 149 149 148 149 148 147
78 214 238 232 173 131 150 175 159 153 154 119 125 171 264 247 274 281 272 315 27 178 268 291 260 266 260 251 255 233 212 229 226 222 232 228 226 228 221 220 210 196 180 181 192 193 194 195 193 193 189 187 188 185 185 184 181 178 175 176 176 175 169 164 163 163 161 159 160 157 154 151 148 148 150 149 149 149 148 147 147 146 147 147 145 144
178 245 245 207 134 134 134 126 133 131 198 199 171 171 244 249 269 278 291 326 333 196 271 305 297 276 268 257 248 241 232 244 244 233 239 234 229 231 221 214 206 197 192 187 189 190 192 193 192 194 190 186 187 184 183 182 180 178 177 177 174 172 172 169 167 166 163 158 156 154 153 154 152 149 149 147 146 148 147 144 143 142 142 142 140 138
217 248 235 137 150 169 151 119 136 151 240 243 204 195 219 227 217 231 287 329 336 344 4 338 308 276 264 258 250 258 268 267 258 244 250 245 236 239 231 218 209 200 192 185 187 187 188 191 192 193 190 187 186 184 183 182 180 179 180 178 175 175 176 174 172 169 163 158 154 151 148 148 147 146 147 146 144 145 144 141 140 138 138 137 136 135
249 242 114 116 156 166 154 159 170 171 208 272 229 204 213 219 225 239 322 4 356 323 345 23 308 274 279 269 255 285 322 272 255 240 246 247 237 233 232 223 207 197 194 187 186 186 186 188 188 190 191 189 189 187 185 184 183 182 184 181 178 179 179 176 174 171 166 162 160 158 153 149 145 144 148 148 146 145 143 141 140 138 138 137 136 134
245 222 126 126 148 157 168 204 213 179 165 267 244 205 210 209 216 230 200 75 260 263 293 67 231 271 300 285 251 253 267 262 259 250 249 250 238 225 229 223 201 191 187 185 187 185 185 185 184 189 193 192 191 188 185 185 185 184 186 184 181 181 180 178 176 172 170 167 167 169 166 161 155 151 151 150 149 146 144 142 142 140 139 138 137 136
187 191 144 127 128 147 174 216 217 171 149 240 249 182 186 189 200 207 179 191 231 265 312 17 161 270 287 276 263 249 257 270 270 261 257 251 237 229 231 221 203 194 185 182 186 184 187 188 186 189 192 192 190 187 185 186 186 186 187 187 186 184 182 181 179 176 174 172 172 171 168 165 161 158 154 150 148 147 146 145 143 142 141 140 140 140
153 180 186 166 152 173 196 210 182 157 160 245 215 135 149 162 170 161 146 192 286 12 298 288 128 264 268 265 316 342 251 267 268 260 260 254 239 230 230 222 206 197 189 185 184 185 189 190 190 190 189 189 188 187 186 187 189 189 188 189 191 189 186 185 182 178 177 176 177 176 170 164 161 158 155 152 149 149 148 147 145 144 143 142 142 141
148 196 192 166 173 199 202 215 171 163 186 210 130 97 76 80 82 82 112 133 45 344 252 240 162 241 267 236 266 4 225 251 262 261 263 261 247 232 227 221 205 193 188 188 187 188 190 191 190 188 186 186 187 187 187 187 190 191 189 189 191 193 190 186 182 179 179 180 180 179 174 166 161 157 155 153 151 151 151 149 147 146 146 145 144 142
301 266 192 160 182 185 137 77 165 165 160 135 106 69 47 36 42 45 56 82 28 273 243 221 187 200 266 253 197 212 211 227 247 265 278 284 273 246 228 215 198 187 184 185 186 186 188 189 188 185 184 184 186 187 187 187 189 191 191 190 190 192 189 185 183 182 183 184 182 181 177 171 165 160 158 157 155 154 154 151 149 149 148 147 146 144
333 329 242 217 167 129 100 70 23 69 119 113 90 80 65 349 9 20 358 47 237 258 247 231 191 188 239 260 229 241 250 238 231 245 266 275 274 256 231 213 193 184 181 177 179 178 176 179 183 184 184 184 185 186 187 188 188 189 191 190 188 189 189 187 186 186 186 184 182 181 179 175 169 165 163 161 159 158 157 154 153 152 151 150 149 148
280 232 258 309 194 146 115 91 31 28 89 105 103 108 104 325 350 346 312 63 231 259 276 350 120 199 240 252 250 258 262 254 235 228 240 253 262 258 231 209 190 180 180 178 178 177 175 178 181 183 184 184 185 187 188 189 187 187 190 191 189 189 191 190 189 187 187 185 183 181 179 176 172 169 167 165 163 162 161 159 157 156 155 154 153 152
264 291 284 184 249 186 157 161 169 170 174 160 147 143 143 152 256 270 270 274 263 271 294 3 158 246 267 257 238 238 245 252 250 237 234 238 247 252 230 198 188 186 184 183 182 182 185 185 183 184 185 185 186 188 189 189 188 187 188 191 191 191 191 191 189 188 187 186 185 183 180 176 173 171 170 168 166 165 164 163 161 159 158 157 155 154
216 277 213 180 204 186 183 190 166 136 160 185 153 141 161 161 171 218 221 233 260 286 300 288 200 202 208 249 240 235 251 269 272 265 253 248 247 247 228 191 188 193 189 187 189 190 191 187 185 185 185 186 187 188 188 189 189 188 188 190 192 191 190 189 189 189 188 187 185 184 180 178 176 175 173 172 170 168 167 165 163 161 160 158 157 156
201 262 242 210 185 170 182 193 119 108 138 225 118 120 190 183 170 215 209 179 194 303 293 231 222 217 210 268 268 253 270 272 269 278 271 264 261 220 207 200 194 197 193 192 192 192 191 188 187 186 186 187 187 187 188 189 190 189 189 191 192 192 190 190 190 190 189 188 186 184 182 179 178 177 175 174 173 171 169 167 165 163 162 161 159 158
174 277 286 3 17 174 183 172 126 136 177 167 138 175 207 170 150 199 267 61 80 274 268 199 239 285 313 282 269 243 255 265 273 273 258 261 268 211 218 208 200 202 195 196 196 191 188 186 188 189 187 187 187 187 189 191 192 192 191 191 191 191 191 190 191 191 190 189 188 186 183 181 181 180 179 177 175 173 171 169 167 166 165 164 163 161
168 256 293 98 172 259 244 118 71 19 125 128 178 199 161 85 99 127 253 346 42 258 272 218 238 275 273 272 302 181 236 255 261 255 255 267 255 231 232 211 205 207 195 198 197 190 190 187 189 190 189 190 189 189 190 192 194 194 194 193 191 191 190 190 191 192 192 191 189 187 185 184 184 182 181 179 177 175 172 171 170 169 169 168 166 164
164 222 300 73 184 286 359 108 69 356 63 130 182 182 124 131 209 121 176 236 208 251 284 285 259 251 207 227 293 194 217 236 250 255 263 264 247 237 231 209 206 202 190 197 195 190 191 189 190 189 189 191 191 191 192 192 194 194 195 195 193 193 192 191 192 192 193 193 190 189 187 186 186 184 183 181 179 177 175 174 173 172 172 171 169 167
143 199 264 341 238 310 10 156 181 227 27 60 109 146 111 153 176 162 166 174 173 233 285 312 300 249 212 205 200 215 221 218 235 252 254 252 250 243 219 203 206 200 194 198 194 193 190 188 191 190 189 191 191 193 192 192 194 194 194 194 192 193 191 191 193 192 192 193 191 190 189 188 188 186 186 184 182 180 178 176 175 176 176 174 172 170
129 209 234 331 342 177 197 215 191 179 168 153 158 170 182 105 104 163 200 133 137 174 227 289 288 264 227 194 195 212 218 207 217 232 238 250 259 244 199 198 206 205 203 200 192 191 187 185 189 191 191 192 192 193 193 192 194 194 194 193 192 191 190 191 192 193 194 194 193 193 191 190 190 189 189 187 185 183 181 179 179 179 179 177 175 173
187 198 181 158 242 206 222 254 212 190 182 177 184 188 185 171 145 170 239 204 133 180 186 195 275 271 236 186 201 206 206 207 215 220 237 263 268 237 206 200 202 204 203 200 190 185 184 183 186 188 190 191 192 193 193 194 194 194 194 194 193 193 192 192 193 194 195 195 196 196 194 192 192 191 191 189 187 186 183 182 183 183 183 181 178 176
155 118 168 194 223 220 240 283 245 195 164 148 194 198 177 172 166 173 213 215 163 223 184 127 275 276 241 184 210 214 215 226 228 213 230 272 277 252 226 204 200 206 201 193 187 183 183 183 184 186 189 191 192 194 194 194 195 195 195 195 195 195 195 195 195 195 196 197 198 199 197 195 194 194 194 192 190 188 186 185 186 186 186 183 181 179
105 119 196 240 315 313 310 329 10 89 110 127 239 172 160 190 194 178 195 183 165 212 182 125 259 262 266 245 236 246 263 261 255 227 220 257 276 261 234 209 194 200 196 186 183 177 177 180 183 186 190 192 193 194 195 196 196 196 197 197 198 198 198 198 197 197 197 198 199 199 199 198 197 196 196 195 193 190 189 189 189 189 188 186 183 182
171 184 187 188 281 316 327 314 287 216 174 193 217 191 190 198 190 166 88 125 203 219 181 175 247 241 249 313 287 287 291 274 260 248 222 237 263 262 237 209 192 194 191 183 179 174 176 180 185 190 192 194 195 196 196 197 197 198 198 199 200 200 199 199 199 199 199 199 199 199 200 200 199 199 198 197 195 193 191 191 192 191 191 189 186 184
176 185 182 189 217 229 228 229 220 186 153 188 210 199 205 198 185 192 202 187 233 223 171 194 242 241 350 306 268 252 268 265 259 257 239 237 252 256 230 206 195 189 190 188 183 182 185 187 191 193 194 196 196 197 197 199 199 199 200 201 201 201 200 200 200 200 199 199 199 199 200 200 200 200 200 198 196 195 194 194 195 194 193 191 189 187
147 186 194 198 214 224 230 231 154 130 144 203 210 197 202 203 193 196 207 214 222 191 178 221 234 244 255 236 233 244 232 237 256 260 254 248 249 247 225 205 198 192 194 192 186 186 191 195 197 196 196 197 198 198 198 199 199 200 201 202 202 202 201 200 200 199 199 200 200 200 201 201 201 201 201 200 198 197 197 197 197 197 195 193 191 190
119 203 205 208 221 230 236 221 148 147 171 199 204 197 201 203 194 195 214 221 198 138 237 236 218 239 252 229 215 238 229 230 250 243 242 246 240 233 207 184 191 195 195 195 194 195 196 199 199 197 198 198 197 198 198 198 200 201 202 203 202 202 201 200 199 199 200 200 200 202 202 202 202 202 202 201 200 199 199 199 200 199 197 195 194 193
157 211 207 212 226 236 241 216 164 171 187 195 199 200 200 197 193 200 217 222 196 184 241 240 184 218 249 242 226 227 211 221 236 231 227 226 212 204 185 185 199 197 198 203 204 203 200 200 198 195 197 196 194 196 196 197 199 199 201 203 202 202 202 200 199 199 199 200 201 203 203 202 203 203 203 202 201 201 201 201 201 201 200 199 198 197
185 212 205 209 223 237 242 225 179 185 201 201 201 202 199 196 197 206 218 222 212 215 242 248 226 235 250 247 228 211 202 224 237 189 180 207 209 200 190 204 213 204 206 212 210 207 202 199 195 191 193 194 194 195 195 196 198 198 199 200 200 201 202 201 200 199 199 201 202 203 203 202 203 203 203 203 203 203 203 203 203 203 202 202 201 200
204 213 197 195 217 238 244 236 206 198 212 221 218 210 207 206 206 210 217 220 217 227 242 248 254 258 256 229 213 201 187 215 237 209 218 222 216 204 201 215 220 213 217 219 213 206 199 194 191 189 194 196 196 195 195 196 197 196 197 199 200 201 201 199 199 199 200 202 203 203 203 203 203 203 204 204 204 204 204 204 204 204 204 204 203 203
195 213 148 143 207 238 242 239 225 207 217 236 237 225 217 215 213 213 216 215 211 219 235 243 252 257 249 176 189 196 171 195 224 225 230 234 218 207 211 219 220 219 221 220 211 200 194 193 191 193 199 199 196 195 196 196 195 196 198 200 200 199 198 198 199 200 201 203 202 203 204 204 204 204 205 205 205 205 206 206 205 205 206 205 205 205
176 196 189 171 210 241 242 224 197 166 188 239 237 228 222 218 215 214 220 222 214 210 222 227 233 245 247 212 200 216 194 208 225 223 223 232 224 213 217 222 223 224 223 218 207 197 195 196 197 199 200 199 197 198 198 196 195 198 200 199 198 196 195 197 199 200 201 202 202 204 205 205 205 204 205 206 206 207 207 206 206 207 207 207 207 207
182 195 201 187 211 239 226 158 139 178 213 228 233 227 221 213 207 211 219 221 216 210 220 231 237 248 251 231 220 232 223 217 225 225 221 224 220 216 223 228 229 228 223 212 201 198 198 199 200 202 203 202 201 201 199 199 199 200 199 196 194 194 194 196 199 200 202 202 204 205 205 205 205 205 206 207 207 207 207 207 208 208 208 208 207 207
186 197 195 183 214 229 174 134 169 214 220 234 275 217 214 210 204 210 222 226 220 216 226 239 246 249 250 243 233 235 235 232 235 238 236 229 216 211 218 227 227 224 217 203 198 200 198 194 195 199 203 204 203 199 199 200 200 197 194 193 194 194 196 198 199 201 203 204 205 205 205 205 206 206 206 207 207 208 208 208 208 208 209 209 209 209
175 189 182 172 202 196 140 180 213 232 263 287 299 224 194 192 187 201 232 238 227 219 220 229 239 244 247 250 246 233 233 258 270 255 239 230 218 207 211 222 223 216 210 201 197 198 194 192 194 199 201 200 198 197 199 200 197 193 192 193 193 195 197 198 199 201 204 205 206 205 205 206 206 206 206 206 207 208 209 209 209 209 209 210 210 211
171 179 187 201 201 197 199 212 231 316 319 275 254 215 167 154 165 181 216 238 230 221 217 222 235 242 246 250 251 237 173 301 291 266 230 222 222 212 213 221 211 203 206 202 199 201 199 197 198 199 198 195 195 197 198 196 193 191 190 191 192 194 195 196 199 203 205 206 206 206 207 207 206 206 206 206 208 209 210 211 210 210 210 210 210 212
186 183 188 201 204 198 212 228 238 253 251 244 233 196 173 174 175 172 192 243 242 221 210 215 230 239 241 244 245 212 111 259 268 258 223 207 206 191 190 213 203 193 192 186 184 188 191 193 194 195 194 191 192 196 195 192 190 188 187 189 191 193 194 197 203 205 205 206 207 207 208 208 208 207 207 208 210 211 212 212 211 211 211 212 212 214
212 202 193 199 203 194 208 228 223 220 243 244 218 178 167 165 146 129 170 254 248 200 185 198 219 232 233 233 222 144 129 237 257 254 210 181 186 179 169 172 168 164 169 172 174 173 175 180 183 185 187 187 188 191 192 190 188 186 187 191 191 192 196 202 206 207 206 208 208 208 209 209 209 210 209 211 213 213 213 214 213 214 214 215 216 217
216 213 199 206 212 205 209 227 228 226 251 240 192 176 169 148 126 119 196 250 221 166 172 188 209 226 226 212 175 152 187 224 244 245 190 155 148 139 135 136 134 132 134 145 160 166 166 168 170 172 178 184 186 188 189 188 187 187 190 191 191 195 202 207 209 208 209 210 210 210 211 212 212 212 213 214 216 216 216 216 216 216 217 217 218 219
209 207 202 211 218 212 213 226 241 245 242 208 173 170 157 131 128 163 217 233 177 167 188 194 206 222 207 170 169 190 210 223 227 176 141 129 118 94 93 108 115 116 118 126 140 149 150 156 165 169 176 183 184 184 186 186 185 187 190 189 193 202 209 211 211 211 211 211 211 212 214 214 215 216 217 218 218 218 218 218 218 218 219 220 220 220
198 204 206 212 217 219 222 226 238 256 231 161 143 163 162 147 176 207 221 240 150 169 189 198 209 214 173 169 190 200 194 101 93 116 119 121 125 119 114 113 108 106 113 122 129 137 138 141 150 157 165 175 179 182 185 185 184 187 188 192 202 211 214 212 213 213 212 212 213 213 215 216 217 219 219 219 219 219 219 220 221 222 222 223 224 224
182 183 198 207 206 211 224 217 221 256 211 135 124 132 219 200 202 195 151 45 162 171 157 179 208 203 172 174 178 160 140 114 107 117 114 112 116 113 109 107 103 100 103 107 114 127 132 130 134 145 154 166 176 183 185 185 185 186 189 199 210 215 214 213 213 213 211 212 213 215 216 218 220 220 220 220 220 221 221 222 222 223 225 226 227 229
184 185 197 205 197 189 209 219 211 201 173 152 143 167 214 203 184 168 153 139 196 186 159 171 202 197 171 157 143 142 144 129 125 128 117 109 110 107 100 95 97 100 102 106 117 130 134 132 134 143 153 165 175 182 186 186 184 185 193 204 212 212 210 211 211 210 210 212 213 216 219 220 222 222 222 222 223 222 222 223 223 224 225 227 228 230
204 191 173 185 201 199 206 220 208 142 181 180 165 189 207 187 145 146 153 143 176 195 174 164 178 176 156 142 138 144 155 148 145 141 128 126 126 119 118 120 121 123 123 124 132 141 143 142 142 144 151 162 170 175 181 185 185 188 195 202 206 206 206 206 205 206 209 212 215 218 221 221 222 224 224 224 224 223 223 223 222 223 225 227 228 229
226 174 136 141 212 257 259 207 164 199 219 209 216 277 217 182 154 149 150 152 176 184 169 161 164 157 151 148 142 144 157 153 143 136 134 137 134 125 124 124 123 128 129 129 135 143 143 140 140 141 143 152 162 168 174 182 186 190 193 196 199 203 203 201 202 205 209 213 217 219 220 221 221 222 224 225 226 226 226 226 225 225 226 227 228 230
263 178 147 143 179 208 233 200 170 195 220 210 216 256 242 202 173 152 171 204 185 165 162 162 152 145 151 155 147 143 151 149 140 138 141 138 137 141 142 135 132 136 137 136 138 142 142 137 135 137 140 146 155 162 168 176 183 185 186 189 194 197 198 199 202 206 209 213 216 217 218 220 221 221 222 224 225 226 227 228 229 228 227 228 229 230
203 165 156 187 192 188 223 225 200 248 250 223 215 219 208 198 163 130 170 208 153 131 132 135 136 144 155 158 146 140 147 154 148 143 146 148 147 151 151 147 145 143 141 141 142 142 141 137 135 138 141 143 150 157 163 171 178 180 178 180 184 188 194 198 202 206 210 212 214 216 218 220 221 222 223 224 225 226 227 228 229 230 232 234 234 234
132 153 167 180 185 218 271 245 184 316 283 243 227 228 224 202 163 134 145 157 129 118 115 107 108 138 152 156 149 140 145 164 161 146 145 151 152 153 154 154 151 146 143 144 144 143 142 140 140 141 141 143 151 160 163 169 177 182 181 179 179 183 191 196 200 206 210 211 214 217 218 220 222 224 225 226 227 228 229 230 232 234 238 240 241 241
144 172 171 144 171 222 237 201 167 161 214 217 212 212 212 192 156 141 148 151 139 136 133 118 87 83 121 147 156 149 150 161 161 148 149 155 159 160 158 153 149 146 145 147 147 145 142 142 144 144 142 147 159 167 169 174 180 185 187 186 183 185 192 196 199 205 210 213 216 218 219 221 223 225 227 228 230 231 231 232 235 238 241 243 244 246
182 181 175 171 195 221 207 174 168 180 215 210 198 187 179 168 158 160 168 165 158 157 150 137 126 123 133 151 163 154 153 157 158 151 146 148 157 159 157 156 154 153 155 157 156 151 147 148 152 151 146 147 158 168 175 181 184 189 195 196 194 193 197 200 202 207 213 216 219 222 223 224 225 227 228 230 233 235 234 235 238 240 243 246 248 249